Regional Weather Roundup
Issued by NWS

Home | Current Version | Previous Version | Text Only | Print | Product List | Glossary On
Versions: 1 2 3 4 5 6 7 8 9 10 11 12 13 14 15 16 17 18 19 20 21 22 23 24 25 26 27 28 29 30 31 32 33 34 35 36 37 38 39 40 41 42 43 44 45 46 47 48 49 50
000
ASCA42 TJSJ 301211
RWRPR
PUERTO RICO/U.S. VIRGIN ISLANDS HOURLY WEATHER ROUNDUP
NATIONAL WEATHER SERVICE SAN JUAN PR
800 AM AST FRI JAN 30 2015

PRZ001-004-301300-
PUERTO RICO

CITY           SKY/WX    TMP DP  RH WIND       PRES   REMARKS
SAN JUAN LMM   LGT RAIN  73  72  94 VRB3      30.02R
AGUADILLA      PTSUNNY   72  66  83 SE9       30.03R
CEIBA          PTSUNNY   75  72  88 N8        30.03R
$$

PRZ006-007-301300-
U.S. VIRGIN ISLANDS

CITY           SKY/WX    TMP DP  RH WIND       PRES   REMARKS
$$

HOURLY WEATHER ROUNDUP FOR THE NEWS MEDIA

CITY           SKY/WX    TMP DP  RH WIND       PRES   REMARKS
MIAMI          MOCLDY    59  53  80 W5        30.19R
ORLANDO        PTCLDY    50  43  77 CALM      30.19S
NEW YORK       FLURRIES  36  26  67 W13       29.87R WCI  27
NEWARK         CLOUDY    32  27  81 W7        29.85S WCI  26
CHICAGO        PTCLDY    21   9  59 N13       30.46R WCI   9
HARTFORD       LGT RAIN  34  33  96 SE5       29.84F WCI  30
BOSTON         CLOUDY    32  28  85 S8        29.85F WCI  25
DALLAS         MOCLDY    44  30  57 NE8       30.47R
PHILADELPHIA   FLURRIES  35  25  66 NW13      29.90R WCI  26



USA.gov is the U.S. government's official web portal to all federal, state and local government web resources and services.